Find Starling 3

NORAD ID: 57389 Int'l Des: 2023-100 Owner: ARC Country: US operational
LEOCIRCULARRETROGRADE

实时位置

正在加载3D地球...

关于 Starling 3

正在加载描述...

即将过境

Passes for default location (London). Set your location on the main map for personalized predictions.

高度历史

Loading altitude history...

两行轨道根数

1 57389U 23100D 26106.61496351 .00003698 00000-0 22286-3 0 9997
2 57389 99.5095 112.4386 0004425 321.2963 38.7943 15.11665632150766
Epoch: Apr 16, 2026 • Age: 27 hours

当前状态

高度 545.8 km
速度 7.60 km/s
星下点 77.15°N, 50.77°W
发射日期 Jul 18, 2023
运行时间 2.7 years
类型 other

技术详情

分类 Payload
质量 12.00 kg
干质量 12.00 kg
总质量 12.00 kg
长度 0.30 m
直径 0.20 m
跨度 0.50 m
形状 Box + 2 pan
制造商 BLCAN
平台类型 Cubesat 6U
阶段状态 In Orbit
所有者/国家 ARC/US

Most Searched